This is the latest recevied weather packets stored in our database for station/object S57D-6. If no packets are shown the sender has not sent any weather packets the latest 1 day(s).
| Time | Temp. | Humidity | Pressure | Rain* | Wind** | Luminosity | Snow |
|---|---|---|---|---|---|---|---|
| 1777992760 | 16.11° C | 67% | 1012.3 hPa | 0 mm | 0 m/s | - | - |
| 1777992458 | 16.11° C | 66% | 1012.4 hPa | 0 mm | 0 m/s | - | - |
| 1777991858 | 16.67° C | 66% | 1012.4 hPa | 0 mm | 0.45 m/s, 315° | - | - |
| 1777991257 | 16.67° C | 65% | 1012.3 hPa | 0 mm | 0.45 m/s, 292° | - | - |
| 1777990355 | 16.67° C | 65% | 1012.4 hPa | 0 mm | 0.89 m/s, 315° | - | - |
| 1777990055 | 17.22° C | 65% | 1012.4 hPa | 0 mm | 0 m/s | - | - |
| 1777989754 | 17.22° C | 65% | 1012.5 hPa | 0 mm | 0 m/s | - | - |
| 1777989154 | 17.22° C | 65% | 1012.5 hPa | 0 mm | 0.45 m/s, 270° | - | - |
| 1777988854 | 17.22° C | 65% | 1012.5 hPa | 0 mm | 0.45 m/s, 315° | - | - |
| 1777988553 | 17.22° C | 65% | 1012.5 hPa | 0 mm | 0.45 m/s, 225° | - | - |
| 1777988287 | 17.22° C | 65% | 1012.6 hPa | 0 mm | 1.34 m/s, 292° | - | - |
| 1777988254 | 17.22° C | 65% | 1012.6 hPa | 0 mm | 1.34 m/s, 292° | - | - |
| 1777987952 | 17.22° C | 65% | 1012.6 hPa | 0 mm | 0 m/s | - | - |
| 1777987653 | 17.22° C | 64% | 1012.7 hPa | 0 mm | 0.45 m/s, 292° | - | - |
| 1777987352 | 17.22° C | 65% | 1012.6 hPa | 0 mm | 0 m/s | - | - |
| 1777987052 | 17.78° C | 64% | 1012.8 hPa | 0 mm | 0.89 m/s, 247° | - | - |
| 1777986751 | 17.78° C | 65% | 1012.8 hPa | 0 mm | 0.45 m/s, 225° | - | - |
| 1777986151 | 17.22° C | 64% | 1012.9 hPa | 0 mm | 0.89 m/s, 292° | - | - |
| 1777985852 | 17.22° C | 64% | 1012.9 hPa | 0 mm | 0 m/s | - | - |
| 1777985550 | 17.22° C | 64% | 1013 hPa | 0 mm | 0 m/s | - | - |
| 1777985284 | 17.22° C | 64% | 1013.1 hPa | 0 mm | 0.45 m/s, 157° | - | - |
| 1777985251 | 17.22° C | 64% | 1013.1 hPa | 0 mm | 0.45 m/s, 157° | - | - |
| 1777984950 | 17.22° C | 64% | 1013.2 hPa | 0 mm | 1.34 m/s, 292° | - | - |
| 1777984650 | 17.22° C | 64% | 1013.2 hPa | 0 mm | 0.45 m/s, 292° | - | - |
| 1777984349 | 17.22° C | 64% | 1013.4 hPa | 0 mm | 0.89 m/s, 292° | - | - |
* Rain latest hour (hover to see other rain measurements)
** Current wind speed in m/s (hover to see current wind gust speed)